Location: Mentone
(34.5413°N, 85.5351°W)
Time: 22:56:50
(UTC-05:00)

Okean O Rocket - Visible Passes

Search period start: 27 May 2015 00:00
Search period end: 06 June 2015 00:00
Orbit: 624 x 646 km, 98.0° (Epoch: 26 May)

Date Brightness Start Highest point End Pass type
(mag) Time Alt. Az. Time Alt. Az. Time Alt. Az.
27 May 4.0 02:50:37 10° NE 02:53:21 17° E 02:55:34 12° SE visible
27 May 2.4 04:25:50 10° N 04:29:57 36° WNW 04:33:03 16° SW visible
28 May 3.3 03:11:37 10° NE 03:15:29 29° E 03:17:48 19° SE visible
28 May 3.1 04:48:21 10° NNW 04:51:46 21° WNW 04:55:03 10° WSW visible
29 May 2.2 03:33:09 10° NNE 03:37:31 53° E 03:40:01 24° SSE visible
30 May 1.6 03:55:00 10° N 03:59:28 84° WNW 04:02:14 23° SSW visible
31 May 4.2 02:42:40 10° ENE 02:44:38 13° E 02:46:50 10° ESE visible
31 May 2.1 04:17:05 10° N 04:21:21 46° WNW 04:24:28 17° SW visible
01 Jun 3.6 03:03:17 10° NE 03:06:48 23° E 03:09:12 16° SE visible
01 Jun 2.8 04:39:26 10° NNW 04:43:12 26° WNW 04:46:41 11° SW visible
02 Jun 2.7 03:24:39 10° NNE 03:28:52 41° E 03:31:25 21° SSE visible
02 Jun 3.5 05:02:17 10° NNW 05:04:59 15° WNW 05:07:31 10° WSW visible
03 Jun 1.7 03:46:23 10° NNE 03:50:51 77° ESE 03:53:37 23° S visible
04 Jun 4.4 02:35:51 10° E 02:35:53 10° E 02:36:15 10° E visible
04 Jun 1.8 04:08:21 10° N 04:12:46 59° WNW 04:15:50 19° SSW visible
05 Jun 3.9 02:55:03 10° NE 02:58:06 19° E 03:00:34 13° SE visible
05 Jun 2.5 04:30:36 10° N 04:34:37 33° WNW 04:38:02 13° SW visible
